Regional Weather Roundup
Issued by NWS

Home | Current Version | Previous Version | Graphics & Text | Print | Product List | Glossary On
Versions: 1 2 3 4 5 6 7 8 9 10 11 12 13 14 15 16 17 18 19 20 21 22 23 24 25 26 27 28 29 30 31 32 33 34 35 36 37 38 39 40 41 42 43 44 45 46 47 48 49 50
000
ASUS43 KIND 231109
RWRIN

WEATHER ROUNDUP FOR INDIANA
NATIONAL WEATHER SERVICE INDIANAPOLIS IN
700 AM EDT WED JUL 23 2014

NOTE: "FAIR" INDICATES FEW OR NO CLOUDS BELOW 12,000 FEET WITH NO
SIGNIFICANT WEATHER AND/OR OBSTRUCTIONS TO VISIBILITY.

* - STATION DOES NOT REPORT WEATHER SUCH AS PRECIPITATION OR FOG.

+ - STATION NOT QUALITY CONTROLLED BY THE NATIONAL WEATHER SERVICE.
    USE DATA WITH CAUTION...ESPECIALLY DEWPOINT AND RELATIVE
    HUMIDITY OBSERVATIONS.

INZ001>003-010>013-019-020-231200-
NORTHWEST INDIANA

CITY           SKY/WX    TMP DP  RH WIND       PRES   REMARKS
GARY /AIRPORT/ MOCLDY    66  59  77 N14G28    30.09R
KNOX *+        CLOUDY    66  64  93 N13       30.02R
LA PORTE +     CLOUDY    65  65 100 N22G29    30.04S
MICHIGAN CITY+ CLOUDY    64  61  88 N13G21    30.07R
MONTICELLO +   CLOUDY    69  69  98 NW8       30.00R
RENSSELAER +   CLOUDY    66  64  94 N7        30.03S
VALPARAISO     CLOUDY    64  62  93 N8G17     30.05R

$$

LMZ046-743>745-231200-
SOUTHERN LAKE MICHIGAN

STATION/POSITION TIME  TEMP WIND        PRES
                       AIR  DIR/SP/G
                 (UTC) (F)  (DEG/KT/KT) (MB)
MICHIGAN CITY    1100   66  360/ 25/ 28   N/A

$$

INZ004-005-014>016-021>024-231200-
NORTH CENTRAL INDIANA

CITY           SKY/WX    TMP DP  RH WIND       PRES   REMARKS
GOSHEN         CLOUDY    70  67  90 N9        30.01S
LOGANSPORT +   CLOUDY    66  64  94 CALM      30.01R
PERU/GRISSOM   CLOUDY    69  69 100 W14       29.99F
ROCHESTER +    CLOUDY    70  70 100 NW7       30.00S
SOUTH BEND     CLOUDY    68  65  90 N17       30.04R
WARSAW +       CLOUDY    68  68 100 CALM      30.01R

$$

INZ006>009-017-018-025>027-231200-
NORTHEAST INDIANA

CITY           SKY/WX    TMP DP  RH WIND       PRES   REMARKS
ANGOLA *+      CLOUDY    70  61  73 CALM      30.02S
AUBURN +       CLOUDY    68  64  88 CALM      30.02F
FORT WAYNE     LGT RAIN  69  66  90 W8        30.00R
HUNTINGTON +   LGT RAIN  68  65  91 N5        30.00S

$$

INZ028-029-035-036-043>045-051>053-231200-
WEST CENTRAL INDIANA

CITY           SKY/WX    TMP DP  RH WIND       PRES   REMARKS
GREENCASTLE +  CLOUDY    70  68  94 CALM      30.01F FOG
LAFAYETTE      CLOUDY    70  70 100 W5        29.99F FOG
TERRE HAUTE    CLOUDY    72  69  90 SE5       29.99F FOG

$$

INZ030>032-037>040-046>048-054>057-064-065-231200-
CENTRAL INDIANA

CITY           SKY/WX    TMP DP  RH WIND       PRES   REMARKS
CP ATTERBURY + CLOUDY    68  66  94 E3        30.04F FOG
COLUMBUS       MOCLDY    70  70 100 CALM      30.04
INDIANAPOLIS   LGT RAIN  73  70  90 NE12      30.02S
-EAGLE CREEK   TSTM      70  67  90 E14       30.01F
KOKOMO *+      CLOUDY    70  66  88 NW6       29.98F
MARION +       CLOUDY    67  65  94 E6        29.97F FOG
MT COMFORT *+  MOCLDY    70 N/A N/A E6        30.06F
SHELBYVILLE    CLOUDY    74  69  85 NE8G17    30.07R THUNDER
ZIONSVILLE +   TSTM      71  65  84 SE10      30.00F

$$

INZ033-034-041-042-049-050-058-059-231200-
EAST CENTRAL INDIANA

CITY           SKY/WX    TMP DP  RH WIND       PRES   REMARKS
MUNCIE         LGT RAIN  72  65  78 S7        30.00F

$$

INZ060-061-067>069-081>083-085>088-231200-
SOUTHWEST INDIANA

CITY           SKY/WX    TMP DP  RH WIND       PRES   REMARKS
EVANSVILLE     CLEAR     74  70  87 SW5       30.02S FOG
HUNTINGBURG *+ PTCLDY    70  66  88 CALM      30.01F
WASHINGTON +   MOCLDY    69  69 100 S5        30.01R FOG

$$

INZ062-063-066-070>080-084-089>092-231200-
SOUTH CENTRAL AND SOUTHEAST INDIANA

CITY           SKY/WX    TMP DP  RH WIND       PRES   REMARKS
BLOOMINGTON    MOCLDY    72  68  87 SE6       30.02F
SEYMOUR +      CLOUDY    64  57  77 E3        30.03F HAZE

$$



USA.gov is the U.S. government's official web portal to all federal, state and local government web resources and services.